Helicity
65 55 40 47 39 42 45 48 55 45 40 51 52 53 67 61 62 63 52 50 63 66 51 42 27 23 -0 62 147 72 20 91 18 46 79 90 138 131 129 88 71 55 31 4 6 35 70
69 70 69 63 64 64 38 49 48 46 43 42 40 49 59 55 55 52 46 49 53 53 46 48 42 42 -12 93 -1 7 110 149 131 109 133 77 92 93 128 93 76 49 40 15 -12 11 59
80 86 92 68 66 77 64 61 60 50 49 47 41 53 56 60 55 47 47 44 47 47 36 35 35 42 25 52 45 -24 19 83 138 167 182 129 73 114 159 150 39 53 79 31 -20 -32 41
87 94 95 103 95 72 83 64 49 42 45 46 47 56 62 63 52 37 45 54 50 39 33 39 38 47 49 42 87 39 32 21 20 60 211 205 137 168 160 125 153 139 83 104 42 22 51
109 91 107 116 125 115 97 73 56 43 36 45 42 66 70 56 54 56 70 73 72 89 34 34 58 82 47 75 106 42 -10 -15 7 35 80 146 234 222 201 238 262 244 245 204 121 57 66
94 110 102 102 121 122 93 98 96 62 49 46 52 59 77 59 59 85 93 127 205 54 54 31 84 59 49 63 106 65 40 52 43 59 130 174 226 215 273 298 354 317 266 221 130 40 30
102 92 80 88 93 107 103 78 78 79 69 39 39 55 65 58 63 93 95 131 115 109 103 77 75 77 85 99 96 45 58 74 59 80 89 118 211 274 216 212 216 205 271 216 94 76 40
81 72 77 70 63 86 102 69 65 62 49 40 31 43 52 55 81 98 88 86 62 21 51 14 -14 -52 -90 -68 -33 -8 21 82 71 70 83 88 133 130 122 168 225 257 264 109 150 10 22
86 92 91 78 50 61 102 103 76 83 77 57 43 34 38 48 90 108 75 65 46 34 44 63 32 44 43 27 23 43 51 47 32 51 53 116 153 172 110 163 244 249 142 50 102 -13 15
89 97 90 89 73 63 74 57 83 78 58 55 41 17 48 65 92 106 113 122 71 1 70 81 68 65 54 55 55 20 17 58 72 53 124 141 92 102 105 149 188 141 187 240 157 59 19
77 90 104 97 100 82 70 72 55 51 56 44 43 27 33 59 106 86 95 138 75 67 162 43 88 41 51 43 69 49 17 35 37 119 140 58 74 115 74 96 128 142 175 227 128 155 147
70 76 95 109 103 86 59 47 46 35 32 41 31 23 32 85 71 116 114 112 82 137 129 88 70 44 40 48 32 60 37 61 85 87 100 73 46 117 57 74 49 172 141 243 101 159 82
57 85 118 116 94 65 45 31 35 36 34 25 21 16 41 63 9 70 112 114 154 178 53 77 53 53 37 53 36 116 34 75 86 114 84 44 -28 149 51 59 104 77 61 189 152 155 51
50 63 73 82 70 57 37 30 25 23 22 27 18 23 38 58 48 86 155 143 179 161 91 74 123 52 55 62 11 90 76 76 31 91 110 52 23 -34 53 51 88 91 85 283 300 207 99
48 49 49 46 37 28 14 18 29 22 26 44 52 11 29 80 85 62 135 148 150 133 96 133 147 61 58 14 41 62 31 50 81 136 86 40 -4 12 76 82 95 187 205 70 231 213 127
49 37 25 22 22 17 16 20 27 15 18 27 25 36 62 88 138 75 96 102 90 214 227 146 153 128 174 112 84 79 118 102 127 124 116 45 25 -7 59 34 72 163 297 190 154 152 93
51 30 11 8 10 15 16 9 25 21 7 15 13 21 70 76 125 88 97 80 44 185 247 110 117 154 179 159 140 52 26 104 183 215 145 55 83 25 16 43 101 96 113 201 161 173 171
29 17 1 10 17 23 16 -8 4 16 22 40 35 40 65 102 129 105 84 67 56 137 260 131 57 84 159 218 168 135 44 67 77 116 123 150 65 8 -49 -18 41 95 104 101 138 152 104
13 -6 -10 -1 13 24 23 -7 -1 12 21 38 45 33 28 81 94 80 68 60 38 75 167 175 88 47 100 121 135 98 94 59 49 48 75 89 62 9 7 1 17 44 58 90 86 128 101
-1 -34 -32 -7 16 18 22 15 -3 16 17 51 13 56 39 67 81 75 34 39 48 50 83 135 124 110 115 108 116 99 55 41 31 38 33 30 84 86 31 16 19 43 68 47 47 105 47
-16 -21 -33 -21 -6 16 23 20 19 -0 33 72 -29 58 77 41 34 66 71 90 77 69 69 111 71 94 115 131 116 110 60 46 40 92 18 2 49 120 98 37 -45 -23 56 50 37 75 81
-22 -29 -31 -20 -4 48 11 22 26 11 27 71 30 57 44 79 149 115 61 34 80 85 54 98 78 82 68 86 70 67 81 81 65 122 127 28 20 72 26 49 -42 -27 -44 63 32 59 32
3 -7 -30 -25 -14 10 19 32 36 33 20 74 37 32 39 24 95 125 125 86 53 50 23 50 36 -1 3 37 35 55 96 62 37 85 142 115 31 59 -14 106 88 26 -27 -26 41 -58 32
11 -5 -20 -21 -16 -14 10 23 21 24 81 128 75 64 50 -3 32 52 77 97 86 54 40 54 29 39 25 113 94 35 31 62 88 75 94 99 73 -4 -33 56 13 16 43 11 45 98 34
-0 -5 -14 -4 -3 -8 -11 13 41 43 51 82 63 71 71 23 23 48 67 113 117 50 35 43 67 -8 76 87 91 49 30 63 70 59 102 132 99 64 1 -4 27 80 110 126 94 109 56
20 19 17 7 -6 -9 -13 -7 50 50 53 73 53 62 65 28 3 35 82 84 86 82 52 18 36 98 66 66 94 53 38 32 35 25 50 112 121 125 96 21 -1 -7 57 44 28 99 28
33 35 32 26 19 5 -1 7 11 57 56 107 121 21 82 10 -30 52 48 94 74 36 39 36 27 59 53 54 80 64 59 85 20 12 46 85 120 80 75 74 87 80 104 128 81 142 224
35 35 27 9 9 -1 19 30 28 24 75 77 110 51 71 9 -13 38 35 53 70 90 6 28 33 37 121 88 44 46 32 18 21 54 38 86 112 94 91 88 70 85 131 155 197 397 376
34 16 8 10 7 15 26 23 28 23 58 123 124 105 61 73 7 38 -3 32 50 23 66 28 24 -45 98 92 43 53 21 24 12 -15 14 36 48 93 86 39 95 213 246 361 300 369 352
Wind_Speed
64 63 63 63 64 64 64 64 63 63 64 66 69 71 70 68 70 73 73 73 74 75 74 73 72 71 63 55 57 50 56 49 36 33 39 37 42 42 50 46 46 45 48 49 55 56 64
65 66 67 68 69 69 68 67 65 67 67 68 70 70 71 72 73 74 75 76 76 77 75 71 70 65 53 64 41 44 56 52 36 46 42 35 42 39 51 47 46 52 56 59 65 65 67
66 68 69 70 69 71 69 67 66 70 67 68 71 70 71 73 74 76 77 79 78 78 74 72 64 58 56 61 48 65 65 55 51 55 55 47 39 43 53 60 50 56 70 75 70 68 69
64 67 71 71 72 70 69 68 67 67 69 70 71 70 71 72 72 76 79 82 83 79 74 66 53 49 62 47 50 57 53 54 46 46 52 50 51 56 47 55 62 61 67 73 66 67 76
69 67 69 71 73 73 71 70 71 69 68 70 70 70 71 72 74 77 82 86 89 84 63 50 45 42 64 53 38 36 30 42 52 50 44 47 51 51 53 47 61 55 67 69 71 72 79
69 71 71 72 74 76 75 73 72 66 68 68 68 68 70 72 74 77 83 87 85 61 44 31 36 45 54 36 34 35 37 35 41 41 44 41 46 46 43 48 65 61 64 70 85 86 74
69 72 73 73 75 78 78 76 72 69 68 69 68 67 69 71 73 74 72 60 48 45 42 44 36 41 44 41 55 46 40 33 39 36 40 39 42 47 47 51 58 62 65 88 88 80 73
73 75 75 73 75 77 76 73 71 72 72 70 69 67 68 70 72 72 64 45 48 49 68 61 60 67 65 68 68 53 48 46 36 40 36 44 45 45 51 61 67 61 82 108 99 87 70
69 70 68 70 75 74 72 73 72 72 73 67 65 67 68 68 71 60 45 54 55 47 61 59 42 41 35 27 49 49 34 41 42 36 37 41 41 48 56 59 69 75 101 104 103 91 84
64 65 66 68 70 68 69 71 72 71 69 65 64 64 64 64 58 51 46 50 45 45 59 51 36 35 22 28 40 26 15 24 37 42 43 47 56 62 66 64 59 82 83 87 84 74 87
56 60 62 62 59 61 66 72 72 71 70 66 65 62 61 52 59 49 50 57 55 38 65 23 25 14 17 26 37 25 23 19 31 33 36 42 44 56 58 57 58 94 79 83 76 79 84
51 56 57 56 56 59 61 67 69 68 66 67 64 62 59 57 46 52 57 56 45 43 60 34 27 26 24 28 32 25 29 21 28 39 35 42 48 52 46 54 43 66 78 74 73 74 90
49 49 54 58 58 59 59 62 67 66 66 67 66 62 57 56 51 47 51 40 43 52 36 32 34 25 31 38 33 24 21 26 33 36 44 59 68 43 38 53 45 53 47 63 73 70 90
48 49 51 57 59 56 57 57 60 67 65 66 66 62 62 62 60 54 47 37 54 43 38 22 31 32 42 38 28 21 21 29 27 28 44 47 57 45 23 39 44 53 43 51 62 65 73
47 48 52 53 52 50 50 55 58 63 63 60 61 64 64 64 59 49 41 48 43 33 38 37 40 40 38 34 28 26 28 36 28 21 36 43 50 43 27 39 46 51 60 66 59 58 64
49 46 50 50 47 46 48 52 56 57 56 55 56 61 69 61 50 46 49 52 48 43 44 40 39 36 36 26 30 33 33 39 42 23 22 40 56 46 44 38 39 53 47 54 52 58 67
45 45 46 47 40 39 40 44 53 53 50 47 52 56 52 43 38 52 60 59 57 59 52 39 39 45 42 37 38 33 31 36 36 44 48 39 41 45 50 41 50 53 51 50 54 54 56
44 42 38 40 32 28 29 33 42 48 45 42 50 55 41 25 50 55 67 55 46 53 53 46 43 43 47 48 45 41 34 35 32 41 42 43 46 60 67 48 38 62 71 51 57 54 51
42 40 31 32 25 19 17 22 36 38 31 41 51 55 45 39 61 66 61 57 69 68 61 48 46 42 50 51 47 42 36 32 33 36 40 46 47 50 48 35 31 49 56 65 64 52 72
43 40 33 24 20 12 6 4 17 26 29 45 49 49 45 42 50 58 66 64 66 60 66 66 61 58 54 54 50 46 39 40 33 36 37 39 44 50 50 48 41 46 50 54 58 62 67
43 31 17 13 8 7 10 22 23 20 36 40 47 49 43 49 57 58 55 44 57 61 58 59 56 59 59 61 59 60 60 59 50 37 35 37 54 59 56 49 42 45 52 46 62 57 61
31 17 17 11 12 4 19 25 31 32 16 51 49 50 47 56 55 52 57 58 60 55 54 55 61 56 60 67 65 63 55 56 50 48 47 38 54 56 61 57 51 48 38 39 44 48 57
41 33 13 13 10 11 17 26 35 37 27 51 50 61 50 51 52 56 56 57 58 60 61 59 59 59 62 64 46 47 49 51 45 47 48 50 51 55 59 54 59 54 46 37 38 44 41
53 49 26 27 22 21 23 24 31 42 44 36 43 48 53 61 57 57 54 56 60 59 63 62 56 46 47 54 54 48 51 60 56 50 46 55 57 55 68 65 58 45 47 40 37 31 48
67 58 41 46 42 35 33 29 31 40 46 41 53 49 50 61 58 62 59 61 61 60 56 55 58 45 46 50 52 51 54 59 63 65 58 47 55 64 67 64 65 62 45 42 46 36 29
72 66 63 58 55 44 39 35 34 37 47 33 18 49 57 57 66 60 62 55 55 54 50 49 47 33 34 36 33 50 55 48 51 52 36 45 47 61 56 68 65 55 43 46 39 40 26
69 69 66 63 60 55 37 36 33 38 43 39 32 26 44 70 67 54 50 48 42 43 47 53 44 38 32 29 38 47 56 47 54 53 40 36 49 69 68 68 61 49 52 47 58 47 28
73 71 66 68 72 55 15 29 36 38 44 42 37 19 36 63 75 61 62 60 49 45 41 41 40 38 41 38 38 41 44 46 49 52 41 34 41 55 56 64 74 53 49 47 27 23 25
72 67 59 68 66 62 20 19 26 37 42 43 18 39 24 57 46 54 78 80 67 40 39 40 44 43 37 35 36 40 41 46 43 44 38 29 33 36 39 46 30 30 24 18 14 15 20
Wind_Direction
324 322 319 319 316 316 316 315 315 314 314 314 313 311 311 312 310 307 307 307 306 305 305 307 310 313 317 306 299 300 299 304 314 315 300 292 284 278 279 281 279 272 278 279 282 281 283
322 320 318 316 315 314 310 312 312 312 313 313 313 312 309 308 307 307 307 305 304 303 303 305 308 312 309 298 319 315 307 297 297 296 296 298 292 281 286 281 273 282 283 282 282 282 281
323 321 321 316 315 314 312 311 312 310 313 311 312 312 310 309 306 306 305 304 303 302 303 303 308 306 298 292 312 306 301 295 295 289 289 296 295 285 290 288 282 283 284 283 278 283 285
326 323 319 319 317 315 312 312 312 311 311 311 310 310 311 310 309 308 305 301 299 299 301 304 309 303 293 311 311 305 302 298 299 296 291 296 297 292 290 292 288 286 283 280 282 282 278
326 324 322 319 316 316 313 311 308 308 310 311 311 310 309 309 309 308 305 300 294 292 301 306 306 300 294 309 311 319 322 306 302 297 292 293 293 289 288 288 285 283 280 281 281 277 274
326 323 321 319 316 312 310 310 311 307 307 309 310 311 311 309 309 307 305 301 286 298 307 311 303 298 294 306 325 322 323 319 317 306 301 288 286 283 286 278 273 278 278 280 273 267 276
328 324 322 318 316 312 309 308 306 307 305 305 308 309 310 309 308 306 310 317 312 305 303 291 295 289 297 301 311 310 315 317 314 306 297 296 282 272 274 276 280 282 279 267 266 270 278
326 323 321 319 317 313 311 308 306 303 302 301 303 305 308 307 305 302 305 309 315 308 295 291 284 281 284 291 292 295 301 303 308 298 302 296 285 286 283 278 275 278 266 251 270 266 278
331 330 327 322 319 315 309 309 307 305 302 299 301 303 303 304 301 299 306 300 305 319 296 297 290 290 294 291 293 297 285 292 295 302 304 299 305 301 283 273 272 268 256 247 259 268 274
333 331 329 326 323 319 312 306 305 304 302 298 299 301 303 302 296 300 298 308 317 322 292 291 294 300 300 306 300 317 308 291 298 297 310 311 301 293 286 277 266 264 258 266 278 271 259
341 337 332 332 330 327 318 309 304 300 298 296 296 297 298 300 290 291 296 298 303 312 282 291 300 322 312 299 308 318 330 294 294 304 313 315 315 304 295 280 266 254 263 264 270 269 267
343 338 336 334 332 327 325 314 305 301 296 292 292 291 293 292 289 282 288 290 300 286 278 281 299 295 294 297 306 321 326 320 313 303 308 308 308 308 301 292 266 264 265 264 268 267 257
340 339 336 332 328 324 322 318 308 302 297 291 286 285 287 283 276 282 290 290 276 272 292 281 284 298 295 295 296 299 316 304 305 307 307 304 298 305 292 286 273 265 267 253 254 256 250
341 340 338 333 328 324 321 316 314 301 297 291 284 281 281 273 267 271 280 273 264 276 288 305 293 299 295 297 295 287 299 300 298 312 310 313 319 314 302 270 265 260 255 255 250 256 261
337 336 336 336 332 328 324 317 311 305 295 291 287 279 275 265 256 261 265 256 263 278 303 297 296 293 293 290 304 295 292 296 297 291 306 312 309 335 339 278 259 260 255 252 265 269 266
338 341 339 337 334 332 327 316 309 307 302 292 286 274 265 259 255 253 256 255 260 278 298 296 285 294 294 303 297 302 296 307 304 306 310 315 301 316 312 308 264 258 270 251 255 260 255
339 338 338 338 338 336 328 322 307 304 304 292 281 266 273 257 251 247 250 252 259 270 284 286 284 283 289 298 296 304 303 299 310 304 297 307 303 307 312 300 264 254 258 255 256 259 263
338 337 337 336 336 333 335 326 316 301 298 285 271 257 276 260 237 247 248 253 267 270 279 280 282 283 280 287 287 290 301 302 315 317 306 309 302 289 279 296 279 260 252 252 251 254 261
338 337 336 336 332 327 328 330 316 301 296 278 262 260 270 258 240 246 252 259 257 263 267 274 282 282 280 280 285 289 298 304 318 320 313 310 296 296 296 303 297 270 255 252 256 262 253
338 338 338 338 340 330 277 239 332 306 292 265 258 254 255 256 256 253 251 256 257 266 266 267 274 279 280 276 280 281 292 296 307 318 319 317 296 285 286 285 299 277 263 256 252 254 252
338 338 324 327 319 324 213 197 176 164 272 257 252 252 258 250 251 253 255 265 262 262 269 271 274 273 275 275 276 278 281 286 296 304 313 311 285 272 276 263 281 286 265 270 254 256 253
335 315 333 319 251 274 198 185 179 166 267 249 251 252 263 258 261 262 257 261 265 267 270 274 270 276 272 271 274 278 284 288 292 298 302 309 287 280 265 253 258 278 284 280 276 267 263
259 251 267 255 233 193 174 179 178 168 155 252 254 252 265 261 263 261 260 264 267 268 269 272 276 275 275 279 288 288 292 290 293 293 295 294 288 280 268 269 269 275 276 273 274 259 265
260 252 240 235 222 207 193 182 183 180 172 263 262 257 256 256 261 261 268 270 270 271 271 275 280 283 284 292 292 293 292 285 285 286 286 283 281 278 266 270 265 270 266 261 270 291 258
267 255 240 238 231 220 207 190 180 180 179 175 253 255 257 256 262 261 266 270 273 276 281 283 281 287 293 292 290 291 286 287 283 280 276 274 274 270 264 263 262 264 266 268 263 280 288
268 260 253 244 236 222 211 197 184 181 183 180 184 258 254 261 255 260 263 274 282 282 283 288 294 297 300 294 284 280 284 291 291 292 278 262 265 262 266 258 260 267 281 286 281 267 294
262 260 255 249 240 227 208 200 192 188 184 180 272 194 264 248 257 265 267 275 288 291 285 286 290 283 267 279 286 286 287 289 281 282 290 263 257 252 255 258 266 275 283 285 259 266 291
264 261 255 256 262 241 215 201 197 191 186 179 186 188 182 248 239 250 252 254 277 289 285 288 284 279 272 280 288 296 291 286 280 277 288 273 257 256 258 258 258 285 288 279 283 299 304
260 252 265 281 281 283 290 210 198 195 188 182 187 182 180 256 272 267 248 249 256 288 285 268 251 258 285 287 293 286 283 273 280 273 267 277 270 267 261 265 295 320 313 330 337 326 324